When you browse on this site, cookies collect data to enhance your experience and personalize the content and advertising you see.
Visit our Privacy Policy to learn more. By continuing to use the site, you agree to this use of cookies and data.
  • en France
  • Liste des pays
  • À 7 jours
  • Température de l'eau
  • Carte satellitaire
  • Carte météo
  • Widgets météo
  • user-avatar
    Se connecter

    Météo par heure à Cachungo

    Ce jour, 25 Mai, Samedi

    Heure Température Précipitation Vent Pression Humidité
    00:00 +28°C° 0 mm 2 m/s 756 mmHg 63%
    01:00 +28°C° 0 mm 2 m/s 756 mmHg 65%
    02:00 +27°C° 0 mm 2 m/s 756 mmHg 67%
    03:00 +27°C° 0 mm 2 m/s 756 mmHg 67%
    04:00 +27°C° 0 mm 2 m/s 756 mmHg 68%
    05:00 +26°C° 0 mm 2 m/s 756 mmHg 69%
    06:00 +27°C° 0 mm 2 m/s 757 mmHg 65%
    07:00 +28°C° 0 mm 2 m/s 757 mmHg 62%
    08:00 +28°C° 0 mm 2 m/s 757 mmHg 58%
    09:00 +32°C° 0 mm 1 m/s 757 mmHg 47%
    10:00 +35°C° 0 mm 1 m/s 757 mmHg 37%
    11:00 +40°C° 0 mm 1 m/s 757 mmHg 26%
    12:00 +40°C° 0 mm 2 m/s 756 mmHg 26%
    13:00 +40°C° 0 mm 3 m/s 756 mmHg 27%
    14:00 +41°C° 0 mm 4 m/s 755 mmHg 27%
    15:00 +38°C° 0 mm 4 m/s 755 mmHg 33%
    16:00 +36°C° 0 mm 5 m/s 755 mmHg 39%
    17:00 +34°C° 0 mm 5 m/s 755 mmHg 45%
    18:00 +33°C° 0 mm 5 m/s 755 mmHg 52%
    19:00 +30°C° 0 mm 4 m/s 756 mmHg 58%
    20:00 +28°C° 0 mm 4 m/s 756 mmHg 64%
    21:00 +28°C° 0 mm 3 m/s 757 mmHg 65%
    22:00 +28°C° 0 mm 3 m/s 757 mmHg 66%
    23:00 +28°C° 0 mm 3 m/s 757 mmHg 68%

    Demain, 26 Mai, Dimanche

    Heure Température Précipitation Vent Pression Humidité
    00:00 +27°C° 0 mm 2 m/s 757 mmHg 69%
    01:00 +27°C° 0 mm 2 m/s 757 mmHg 69%
    02:00 +27°C° 0 mm 1 m/s 757 mmHg 70%
    03:00 +27°C° 0 mm 1 m/s 757 mmHg 71%
    04:00 +27°C° 0 mm 1 m/s 757 mmHg 72%
    05:00 +27°C° 0 mm 1 m/s 757 mmHg 73%
    06:00 +27°C° 0 mm 1 m/s 757 mmHg 70%
    07:00 +28°C° 0 mm 1 m/s 758 mmHg 66%
    08:00 +29°C° 0 mm 1 m/s 758 mmHg 63%
    09:00 +31°C° 0 mm 1 m/s 758 mmHg 57%
    10:00 +32°C° 0 mm 2 m/s 758 mmHg 51%
    11:00 +35°C° 0 mm 2 m/s 758 mmHg 45%
    12:00 +36°C° 0 mm 3 m/s 757 mmHg 43%
    13:00 +36°C° 0 mm 3 m/s 757 mmHg 41%
    14:00 +37°C° 0 mm 4 m/s 756 mmHg 39%
    15:00 +36°C° 0 mm 4 m/s 756 mmHg 42%
    16:00 +35°C° 0 mm 4 m/s 756 mmHg 44%
    17:00 +34°C° 0 mm 5 m/s 756 mmHg 47%
    18:00 +32°C° 0 mm 4 m/s 756 mmHg 52%
    19:00 +30°C° 0 mm 4 m/s 756 mmHg 56%
    20:00 +29°C° 0 mm 3 m/s 757 mmHg 61%
    21:00 +28°C° 0 mm 3 m/s 757 mmHg 61%
    22:00 +28°C° 0 mm 3 m/s 758 mmHg 62%
    23:00 +28°C° 0 mm 3 m/s 758 mmHg 62%

    Après-demain, 27 Mai, Lundi

    Heure Température Précipitation Vent Pression Humidité
    00:00 +28°C° 0 mm 3 m/s 758 mmHg 63%
    01:00 +27°C° 0 mm 2 m/s 757 mmHg 65%
    02:00 +27°C° 0 mm 2 m/s 757 mmHg 66%
    03:00 +27°C° 0 mm 2 m/s 757 mmHg 66%
    04:00 +27°C° 0 mm 2 m/s 757 mmHg 67%
    05:00 +27°C° 0 mm 1 m/s 757 mmHg 67%
    06:00 +27°C° 0 mm 2 m/s 757 mmHg 64%
    07:00 +28°C° 0 mm 2 m/s 757 mmHg 60%
    08:00 +29°C° 0 mm 2 m/s 758 mmHg 57%
    09:00 +31°C° 0 mm 2 m/s 758 mmHg 48%
    10:00 +34°C° 0 mm 1 m/s 758 mmHg 40%
    11:00 +37°C° 0 mm 1 m/s 758 mmHg 32%
    12:00 +39°C° 0 mm 2 m/s 757 mmHg 32%
    13:00 +39°C° 0 mm 3 m/s 756 mmHg 31%
    14:00 +39°C° 0 mm 3 m/s 756 mmHg 31%
    15:00 +38°C° 0 mm 4 m/s 755 mmHg 36%
    16:00 +36°C° 0 mm 5 m/s 755 mmHg 40%
    17:00 +35°C° 0 mm 5 m/s 755 mmHg 44%
    18:00 +33°C° 0 mm 5 m/s 755 mmHg 48%
    19:00 +32°C° 0 mm 4 m/s 756 mmHg 51%
    20:00 +30°C° 0 mm 4 m/s 757 mmHg 55%
    21:00 +29°C° 0 mm 3 m/s 757 mmHg 56%
    22:00 +29°C° 0 mm 3 m/s 757 mmHg 57%
    23:00 +29°C° 0 mm 2 m/s 757 mmHg 58%

    28 Mai, Mardi

    Heure Température Précipitation Vent Pression Humidité
    00:00 +28°C° 0 mm 2 m/s 757 mmHg 59%
    01:00 +28°C° 0 mm 2 m/s 756 mmHg 60%
    02:00 +28°C° 0 mm 3 m/s 756 mmHg 60%
    03:00 +27°C° 0 mm 2 m/s 756 mmHg 61%
    04:00 +27°C° 0 mm 2 m/s 756 mmHg 61%
    05:00 +27°C° 0 mm 2 m/s 756 mmHg 62%
    06:00 +28°C° 0 mm 2 m/s 756 mmHg 56%
    07:00 +29°C° 0 mm 2 m/s 757 mmHg 51%
    08:00 +31°C° 0 mm 2 m/s 758 mmHg 45%
    09:00 +34°C° 0 mm 2 m/s 758 mmHg 39%
    10:00 +37°C° 0 mm 2 m/s 758 mmHg 33%
    11:00 +39°C° 0 mm 1 m/s 758 mmHg 27%
    12:00 +40°C° 0 mm 2 m/s 757 mmHg 27%
    13:00 +40°C° 0 mm 3 m/s 756 mmHg 27%
    14:00 +41°C° 0 mm 4 m/s 755 mmHg 26%
    15:00 +40°C° 0 mm 4 m/s 755 mmHg 29%
    16:00 +39°C° 0 mm 5 m/s 755 mmHg 32%
    17:00 +37°C° 0 mm 5 m/s 754 mmHg 35%
    18:00 +35°C° 0 mm 5 m/s 755 mmHg 38%
    19:00 +34°C° 0 mm 5 m/s 756 mmHg 40%
    20:00 +32°C° 0 mm 5 m/s 756 mmHg 42%
    21:00 +30°C° 0 mm 4 m/s 757 mmHg 44%
    22:00 +30°C° 0 mm 4 m/s 757 mmHg 47%
    23:00 +29°C° 0 mm 3 m/s 757 mmHg 49%

    29 Mai, Mercredi

    Heure Température Précipitation Vent Pression Humidité
    00:00 +28°C° 0 mm 3 m/s 757 mmHg 51%
    01:00 +28°C° 0 mm 3 m/s 757 mmHg 52%
    02:00 +27°C° 0 mm 2 m/s 756 mmHg 54%
    03:00 +27°C° 0 mm 2 m/s 756 mmHg 54%
    04:00 +27°C° 0 mm 2 m/s 756 mmHg 55%
    05:00 +27°C° 0 mm 2 m/s 757 mmHg 55%
    06:00 +28°C° 0 mm 3 m/s 757 mmHg 50%
    07:00 +30°C° 0 mm 3 m/s 757 mmHg 45%
    08:00 +31°C° 0 mm 3 m/s 758 mmHg 40%
    09:00 +34°C° 0 mm 3 m/s 757 mmHg 33%
    10:00 +37°C° 0 mm 3 m/s 757 mmHg 27%
    11:00 +39°C° 0 mm 3 m/s 757 mmHg 20%
    12:00 +40°C° 0 mm 3 m/s 756 mmHg 19%
    13:00 +43°C° 0 mm 4 m/s 755 mmHg 18%
    14:00 +44°C° 0 mm 4 m/s 754 mmHg 17%
    15:00 +43°C° 0 mm 4 m/s 754 mmHg 19%
    16:00 +42°C° 0 mm 5 m/s 753 mmHg 21%
    17:00 +41°C° 0 mm 5 m/s 753 mmHg 23%
    18:00 +37°C° 0 mm 5 m/s 754 mmHg 29%
    19:00 +35°C° 0 mm 5 m/s 754 mmHg 35%
    20:00 +32°C° 0 mm 5 m/s 755 mmHg 41%
    21:00 +30°C° 0 mm 5 m/s 755 mmHg 42%
    22:00 +30°C° 0 mm 4 m/s 756 mmHg 43%
    23:00 +29°C° 0 mm 4 m/s 756 mmHg 43%

    30 Mai, Jeudi

    Heure Température Précipitation Vent Pression Humidité
    00:00 +29°C° 0 mm 4 m/s 755 mmHg 42%
    01:00 +28°C° 0 mm 3 m/s 755 mmHg 42%
    02:00 +28°C° 0 mm 3 m/s 754 mmHg 41%
    03:00 +27°C° 0 mm 2 m/s 754 mmHg 42%
    04:00 +27°C° 0 mm 2 m/s 754 mmHg 44%
    05:00 +26°C° 0 mm 2 m/s 754 mmHg 46%
    06:00 +28°C° 0 mm 2 m/s 755 mmHg 40%
    07:00 +30°C° 0 mm 2 m/s 755 mmHg 35%
    08:00 +31°C° 0 mm 2 m/s 756 mmHg 29%
    09:00 +35°C° 0 mm 2 m/s 756 mmHg 24%
    10:00 +38°C° 0 mm 2 m/s 755 mmHg 18%
    11:00 +41°C° 0 mm 2 m/s 755 mmHg 13%
    12:00 +42°C° 0 mm 2 m/s 754 mmHg 15%
    13:00 +43°C° 0 mm 3 m/s 754 mmHg 17%
    14:00 +44°C° 0 mm 4 m/s 753 mmHg 19%
    15:00 +41°C° 0 mm 5 m/s 753 mmHg 26%
    16:00 +39°C° 0 mm 5 m/s 752 mmHg 33%
    17:00 +35°C° 0 mm 6 m/s 752 mmHg 41%
    18:00 +34°C° 0 mm 5 m/s 753 mmHg 47%
    19:00 +32°C° 0 mm 5 m/s 754 mmHg 53%
    20:00 +29°C° 0 mm 4 m/s 754 mmHg 59%
    21:00 +29°C° 0 mm 4 m/s 754 mmHg 62%
    22:00 +28°C° 0 mm 4 m/s 755 mmHg 65%
    23:00 +28°C° 0 mm 4 m/s 755 mmHg 68%
    Voir plus